CAPE
0 0 0 0 0 0 0 0 0 0 0 882 769 766 733 729 470 245 321 512 724 752 589 441 243 76 25 0 0 0 0 0 0 0 0 0 0 0 0 0 0 0 0 0 11 76 8 0 0
0 0 0 0 0 0 0 0 0 232 865 446 400 667 762 691 604 434 486 785 741 734 513 386 310 130 29 0 0 0 0 0 1 12 13 7 0 0 0 0 0 0 0 0 30 36 9 0 0
0 0 0 0 0 0 0 0 0 210 597 400 268 419 573 632 573 515 466 918 700 658 424 354 295 120 16 0 0 0 0 0 11 16 20 13 2 0 0 0 0 0 0 0 0 2 15 7 0
0 0 0 0 0 0 0 0 0 71 384 195 197 272 654 750 774 591 812 804 600 567 374 370 260 104 2 0 0 3 10 34 37 36 37 36 21 14 23 17 2 0 0 0 0 0 0 0 0
0 0 0 0 0 0 0 31 127 50 359 192 83 321 784 570 844 815 730 419 601 559 435 298 130 51 54 55 30 23 51 82 82 92 102 79 59 31 31 18 16 0 0 0 0 0 0 0 0
0 0 0 0 0 0 0 215 424 412 293 187 288 354 675 611 641 140 61 72 115 354 352 232 118 132 213 171 41 93 123 133 144 141 138 99 51 15 1 0 0 0 0 0 0 0 0 0 0
0 0 0 0 0 0 0 484 515 432 272 181 296 393 767 563 371 1 0 0 0 46 113 69 16 23 126 134 113 175 182 166 162 120 109 44 9 0 0 0 0 0 0 0 0 0 0 0 0
0 0 0 0 0 0 61 539 461 345 206 137 408 437 531 342 59 0 0 0 0 1 2 3 0 0 73 134 252 255 203 179 91 43 2 0 0 0 0 0 0 0 0 0 0 0 0 0 0
0 0 0 0 0 0 57 497 381 306 317 455 497 552 479 105 0 0 0 3 2 0 0 8 8 36 79 111 180 217 232 67 22 0 0 0 0 0 0 0 0 0 0 0 0 0 0 0 0
0 0 0 0 0 0 179 320 212 281 495 569 561 649 392 124 1 2 0 1 4 4 0 0 0 6 5 0 34 42 93 17 0 0 0 0 0 0 0 0 0 0 0 0 0 0 0 0 0
0 0 0 0 0 13 254 261 93 275 269 422 436 540 530 189 30 14 2 1 2 5 1 0 0 11 46 7 4 14 1 0 0 0 0 0 0 0 0 0 0 0 0 0 0 0 0 0 0
0 0 0 0 3 129 124 77 139 65 73 395 550 540 288 116 88 30 0 1 1 1 0 0 6 26 109 19 0 0 0 0 0 0 0 0 0 0 0 0 0 0 0 0 0 0 0 0 0
0 0 0 0 41 112 39 60 4 196 299 539 469 341 142 69 103 75 20 13 0 0 0 0 5 78 42 14 0 0 0 0 0 0 0 0 9 0 0 0 0 0 0 0 0 0 0 0 0
0 0 1 24 145 59 60 44 34 294 494 444 329 118 68 54 87 64 12 0 2 0 0 0 14 75 35 0 0 0 0 0 0 0 20 41 13 0 0 0 0 0 0 0 0 0 0 0 0
3 19 105 154 103 38 59 47 33 384 510 235 154 60 104 36 95 62 33 1 0 0 0 0 4 91 12 0 0 0 0 5 107 69 3 12 0 0 0 0 0 0 0 0 0 0 0 0 0
12 17 71 85 82 52 16 1 20 516 271 29 53 112 143 53 54 86 81 0 0 0 0 0 37 106 1 0 0 0 0 24 0 0 0 0 0 0 0 0 0 0 0 0 0 0 0 0 0
4 0 0 2 71 74 30 26 48 438 358 64 78 110 131 112 48 28 71 8 0 0 6 29 68 102 7 0 0 0 0 3 0 0 0 0 0 0 0 0 0 0 0 0 0 0 0 0 0
29 7 0 3 95 26 40 6 38 265 420 234 201 160 156 121 147 96 16 28 0 0 8 51 93 92 4 0 0 0 0 0 0 0 0 0 0 0 0 0 0 0 0 0 0 0 0 0 0
33 31 10 4 0 12 1 0 0 72 261 361 318 252 241 247 249 203 69 45 10 0 25 57 119 82 14 0 0 0 10 0 0 0 0 0 0 0 0 0 0 0 0 0 0 0 0 0 0
9 24 16 1 0 0 0 0 0 99 128 301 226 283 308 361 419 417 218 194 91 37 36 53 81 91 52 0 0 0 0 0 0 0 0 0 0 0 0 0 0 0 0 0 0 0 0 0 0
1 1 3 3 0 0 0 0 0 46 194 380 407 330 339 422 474 528 456 297 278 124 78 59 92 94 38 2 0 0 0 0 0 0 0 0 0 0 0 0 0 0 0 0 0 0 0 0 0
2 0 0 0 0 0 0 0 0 0 140 320 374 387 362 339 520 582 570 461 339 224 83 120 117 74 9 0 0 0 0 0 0 0 0 0 0 0 0 0 0 0 0 0 0 0 0 0 0
0 0 0 0 0 0 0 0 0 0 0 67 385 347 347 328 470 567 584 532 346 239 127 143 96 41 1 0 0 0 0 0 0 0 0 0 0 0 0 0 0 0 0 0 0 0 0 0 0
0 0 0 0 0 0 0 0 0 0 0 0 7 274 370 117 275 352 428 408 308 170 167 161 146 88 1 0 0 0 0 0 0 0 0 0 0 0 0 0 0 0 0 0 0 0 0 0 0
0 0 0 0 0 0 0 0 0 0 0 0 0 0 87 217 96 155 207 328 257 197 141 147 148 126 24 4 0 0 0 0 0 0 0 0 0 0 0 0 0 0 0 0 0 0 0 0 0
0 0 0 0 0 0 0 0 0 0 0 0 0 0 0 0 0 83 65 169 212 178 138 145 185 151 31 0 0 0 0 0 0 0 0 0 0 0 0 0 0 0 0 0 0 0 0 0 0
0 0 0 0 0 0 0 0 0 0 0 0 0 0 0 0 0 25 9 58 131 128 143 157 158 147 52 10 0 0 0 0 0 0 0 0 0 0 0 0 0 0 0 0 0 0 0 0 0
0 0 0 0 0 0 0 0 0 0 0 0 0 0 0 0 0 43 77 81 100 117 149 131 110 129 70 12 0 0 0 0 0 0 0 0 0 0 0 0 0 0 0 0 0 0 0 0 0
0 0 0 0 0 0 0 0 0 0 0 0 0 0 0 8 34 117 212 204 164 167 149 79 47 66 50 0 0 0 0 0 0 0 0 0 0 0 0 0 0 0 0 0 0 0 0 0 0
0 0 0 0 0 0 0 0 0 0 0 0 0 0 0 35 111 227 306 345 410 394 283 173 132 179 16 0 0 0 0 0 0 0 0 0 0 0 0 0 0 0 0 0 0 0 0 0 0
CIN
0 0 0 0 0 0 0 0 0 0 0 -100 -125 -90 -74 -133 -129 -70 -261 -195 -105 -48 -58 -52 -79 -163 -234 0 0 0 0 0 0 0 -3 -34 0 0 0 0 0 0 0 0 -98 -60 -149 0 0
0 0 0 0 0 0 0 0 0 -154 -92 -195 -172 -129 -114 -116 -130 -200 -173 -80 -68 -34 -55 -47 -41 -104 -213 0 0 0 0 0 -185 -229 -199 -233 0 0 0 0 0 0 0 0 -132 -86 -135 0 0
0 0 0 0 0 0 0 0 0 -136 -118 -126 -126 -228 -159 -118 -139 -166 -164 -19 -36 -9 -28 -7 -20 -100 -218 0 0 0 0 0 -287 -255 -222 -276 -150 0 0 0 0 0 0 0 0 -53 -158 -30 0
0 0 0 0 0 0 0 0 0 -149 -130 -196 -211 -154 -123 -87 -72 -115 -47 -1 -2 -1 -17 -6 -24 -99 -220 0 0 -127 -267 -238 -228 -228 -212 -231 -190 -163 -159 -183 -192 0 0 0 0 0 0 0 0
0 0 0 0 0 0 0 -176 -172 -159 -138 -178 -240 -164 -85 -106 -39 -11 -36 -59 -10 0 0 -4 -30 -106 -129 -153 -196 -211 -204 -179 -158 -162 -143 -152 -135 -145 -181 -231 -201 0 0 0 0 0 0 0 0
0 0 0 0 0 0 0 -174 -152 -142 -166 -179 -129 -160 -66 -88 -48 -189 -236 -205 -139 -17 0 -2 -11 -15 -18 -46 -194 -128 -115 -92 -81 -116 -111 -117 -151 -262 -193 0 0 0 0 0 0 0 0 0 0
0 0 0 0 0 0 0 -171 -128 -144 -151 -171 -201 -130 -25 -82 -75 -41 0 -66 -40 -117 -45 -45 -5 -5 -10 -58 -110 -46 -48 -68 -108 -136 -119 -204 -320 0 0 0 0 0 0 0 0 0 0 0 0
0 0 0 0 0 0 -71 -143 -195 -173 -180 -289 -197 -100 -45 -99 -161 0 0 0 0 0 0 0 0 0 -32 -56 -16 -21 -43 -104 -176 -193 -275 0 0 0 0 0 0 0 0 0 0 0 0 0 0
0 0 0 0 0 0 -81 -106 -170 -232 -179 -185 -165 -134 -118 -148 0 0 0 0 0 0 0 -1 -3 -17 -44 -46 -16 -4 -45 -151 -177 -63 0 0 0 0 0 0 0 0 0 0 0 0 0 0 0
0 0 0 0 0 0 -165 -141 -157 -127 -130 -105 -110 -85 -119 -103 0 0 0 0 0 0 0 0 0 -48 -58 -3 -88 -103 -111 -249 0 0 0 0 0 0 0 0 0 0 0 0 0 0 0 0 0
0 0 0 0 0 -169 -141 -152 -203 -139 -104 -97 -91 -116 -64 -70 -91 -95 0 0 0 0 0 0 0 -86 -45 -107 -73 -208 -79 0 0 0 0 0 0 0 0 0 0 0 0 0 0 0 0 0 0
0 0 0 0 -155 -141 -123 -216 -146 -206 -180 -100 -127 -100 -81 -84 -70 -74 0 0 0 0 0 0 -97 -40 -5 -140 0 0 0 0 0 0 0 0 0 0 0 0 0 0 0 0 0 0 0 0 0
0 0 0 0 -132 -125 -211 -164 -203 -158 -165 -132 -122 -89 -91 -132 -99 -82 -88 -121 0 0 0 0 -55 -60 -142 -223 0 0 0 0 0 0 0 0 -86 0 0 0 0 0 0 0 0 0 0 0 0
0 0 -34 -83 -101 -175 -153 -174 -200 -263 -187 -144 -132 -162 -156 -180 -163 -210 -243 0 -232 0 0 0 -217 -103 -168 0 0 0 0 0 0 0 -54 -100 -83 0 0 0 0 0 0 0 0 0 0 0 0
-104 -51 -98 -115 -131 -144 -136 -94 -144 -230 -171 -170 -154 -186 -163 -240 -180 -208 -252 -273 -22 0 0 0 -277 -85 -190 0 0 0 0 -97 -57 -73 -15 -157 0 0 0 0 0 0 0 0 0 0 0 0 0
-54 -75 -44 -100 -131 -141 -61 -72 -217 -191 -159 -198 -190 -169 -134 -209 -229 -194 -221 0 0 0 0 0 -163 -96 -6 0 0 0 0 -65 0 0 0 0 0 0 0 0 0 0 0 0 0 0 0 0 0
-37 0 0 -43 -122 -82 -102 -81 -179 -215 -151 -161 -153 -150 -152 -181 -240 -258 -239 -340 0 0 -327 -243 -179 -131 -116 0 0 0 0 -45 0 0 0 0 0 0 0 0 0 0 0 0 0 0 0 0 0
-28 -22 0 -49 -42 -102 -69 -70 -163 -216 -169 -132 -127 -149 -171 -201 -176 -232 -279 -283 0 0 -319 -232 -202 -190 -111 0 0 0 0 0 0 0 0 0 0 0 0 0 0 0 0 0 0 0 0 0 0
-56 -43 -45 -71 0 -80 -37 -1 -1 -219 -200 -174 -161 -181 -171 -155 -170 -216 -262 -285 -260 -1 -299 -256 -221 -207 -251 0 0 0 -139 0 0 0 0 0 0 0 0 0 0 0 0 0 0 0 0 0 0
-61 -30 -36 -16 0 0 0 0 0 -179 -165 -173 -155 -173 -172 -167 -167 -179 -247 -264 -310 -317 -328 -307 -264 -236 -262 -72 0 0 0 0 0 0 0 0 0 0 0 0 0 0 0 0 0 0 0 0 0
-42 -47 -40 -45 0 0 0 0 0 -188 -184 -164 -174 -170 -192 -186 -168 -163 -208 -268 -281 -334 -338 -325 -289 -257 -294 -338 0 0 0 0 0 0 0 0 0 0 0 0 0 0 0 0 0 0 0 0 0
-32 0 0 0 0 0 0 0 0 0 -126 -150 -157 -180 -188 -198 -196 -184 -194 -233 -274 -292 -336 -302 -309 -292 -353 0 0 0 0 0 0 0 0 0 0 0 0 0 0 0 0 0 0 0 0 0 0
0 0 0 0 0 0 0 0 0 0 0 -122 -128 -162 -194 -207 -180 -181 -219 -250 -291 -315 -346 -329 -331 -320 -71 0 0 0 0 0 0 0 0 0 0 0 0 0 0 0 0 0 0 0 0 0 0
0 0 0 0 0 0 0 0 0 0 0 0 -117 -143 -153 -250 -228 -223 -251 -284 -298 -378 -367 -369 -342 -342 -179 -17 0 0 0 0 0 0 0 0 0 0 0 0 0 0 0 0 0 0 0 0 0
0 0 0 0 0 0 0 0 0 0 0 0 0 0 -171 -197 -264 -256 -273 -276 -309 -330 -357 -341 -332 -300 -356 -331 0 0 0 0 0 0 0 0 0 0 0 0 0 0 0 0 0 0 0 0 0
0 0 0 0 0 0 0 0 0 0 0 0 0 0 0 0 -6 -270 -288 -292 -295 -323 -361 -329 -303 -258 -330 0 0 0 0 0 0 0 0 0 0 0 0 0 0 0 0 0 0 0 0 0 0
0 0 0 0 0 0 0 0 0 0 0 0 0 0 0 0 0 -320 -387 -320 -301 -355 -350 -326 -273 -250 -276 -280 0 0 0 0 0 0 0 0 0 0 0 0 0 0 0 0 0 0 0 0 0
0 0 0 0 0 0 0 0 0 0 0 0 0 0 0 0 0 -377 -393 -380 -352 -366 -333 -314 -320 -255 -238 -260 0 0 0 0 0 0 0 0 0 0 0 0 0 0 0 0 0 0 0 0 0
0 0 0 0 0 0 0 0 0 0 0 0 0 0 -86 -289 -325 -300 -297 -325 -335 -357 -318 -280 -294 -256 -247 0 0 0 0 0 0 0 0 0 0 0 0 0 0 0 0 0 0 0 0 0 0
0 0 0 0 0 0 0 0 0 0 0 0 0 0 0 -256 -259 -289 -302 -308 -271 -246 -267 -270 -244 -209 -276 0 0 0 0 0 0 0 0 0 0 0 0 0 0 0 0 0 0 0 0 0 0
Wind_Speed
14 15 15 16 17 18 21 24 24 26 26 22 19 18 19 17 18 20 18 10 3 9 9 9 10 11 11 12 13 14 15 15 17 17 18 17 19 22 21 21 20 20 21 22 22 22 22 24 24
14 14 15 16 16 18 22 22 25 24 21 20 17 18 18 20 19 18 14 6 3 7 7 8 9 9 11 12 14 14 15 15 16 15 16 17 17 21 20 19 19 19 21 22 23 24 25 25 24
14 15 16 17 17 16 20 19 21 21 19 20 18 16 19 20 19 16 16 3 2 6 7 8 9 10 11 11 14 13 14 16 16 15 17 17 17 20 20 18 17 18 19 21 22 24 24 24 24
13 15 16 19 20 21 23 27 24 24 20 18 16 16 16 19 19 16 8 3 2 4 7 10 11 11 12 12 12 12 13 15 16 16 15 16 19 18 16 15 16 17 20 21 22 23 23 23 24
15 15 17 20 21 21 24 24 25 24 20 19 16 16 17 18 15 12 11 9 3 3 8 10 12 13 11 10 11 9 11 14 14 14 13 18 16 14 13 15 17 18 18 20 23 24 24 23 23
15 14 15 19 23 23 23 22 21 19 16 14 14 15 18 14 14 12 12 11 9 8 5 9 12 12 8 6 8 7 11 13 12 13 11 14 14 12 13 14 15 17 18 20 21 22 23 23 23
13 15 15 16 19 20 20 19 18 18 16 17 13 16 16 15 12 11 12 12 12 11 1 9 12 9 5 5 6 6 10 12 13 12 10 12 12 11 13 14 15 15 17 18 19 20 21 22 22
12 14 16 16 17 19 19 17 15 14 16 15 17 17 17 13 9 11 12 11 12 10 4 7 8 7 6 5 5 7 10 12 14 13 12 10 11 10 10 11 12 13 16 18 17 19 20 21 21
13 15 17 16 17 21 19 17 16 16 16 18 20 16 8 7 8 10 11 10 9 13 12 6 8 9 8 6 4 8 7 11 11 10 9 7 5 5 7 10 12 13 15 17 17 18 19 21 22
12 14 17 16 20 22 18 16 17 17 17 18 16 10 9 5 7 8 7 7 6 8 9 11 6 7 8 5 9 7 4 6 8 5 5 2 3 6 7 9 11 13 15 16 17 18 20 21 21
15 18 19 23 24 19 15 16 16 14 19 16 11 7 9 7 9 8 7 7 6 10 12 13 13 8 7 3 6 5 3 17 24 30 0 2 4 7 8 9 11 12 14 16 16 18 20 21 22
17 21 23 22 18 14 15 12 16 15 18 13 13 11 9 9 12 12 13 16 17 15 15 19 21 8 5 3 17 26 32 31 28 12 5 3 5 7 8 10 11 12 13 15 16 18 19 21 22
19 21 20 20 14 15 12 13 15 16 15 13 16 16 15 16 16 15 18 18 14 19 28 33 17 15 27 30 30 29 24 14 18 4 3 4 7 9 8 9 10 11 13 15 16 17 19 20 22
20 22 17 10 13 15 14 15 9 17 12 12 17 21 23 23 20 18 17 19 26 35 36 38 33 31 31 29 29 23 8 16 18 14 6 4 6 7 8 9 10 11 13 14 15 16 18 20 21
20 15 14 15 15 16 12 18 18 15 12 13 16 18 19 21 23 26 31 30 32 34 35 34 31 28 28 22 15 8 4 4 9 7 5 5 6 7 8 9 10 11 12 13 15 17 18 20 22
17 15 19 17 18 15 15 16 15 14 15 16 15 16 20 24 27 29 30 32 32 33 33 31 29 27 27 10 5 11 9 5 4 5 6 6 7 7 8 8 9 10 11 12 14 16 19 22 23
16 20 21 19 13 14 15 15 12 13 17 19 20 21 22 24 28 30 30 31 31 31 30 28 26 23 20 13 9 9 6 4 4 6 6 8 7 7 7 8 8 9 10 12 14 17 20 23 24
15 17 19 18 20 16 16 20 9 18 16 21 22 24 25 25 27 28 29 28 28 28 27 25 21 16 15 13 10 6 6 4 6 6 6 6 5 7 7 7 7 8 10 13 15 19 23 24 24
13 16 18 18 18 20 26 25 12 18 16 20 21 23 26 27 27 26 26 24 25 25 22 22 18 17 14 11 10 10 11 11 4 5 5 6 5 6 6 6 7 8 11 13 17 20 22 23 24
22 15 18 21 19 22 22 25 10 17 20 20 20 21 25 26 26 26 26 27 26 24 22 18 16 16 14 12 10 4 6 5 5 5 5 4 5 5 5 5 7 9 12 16 18 20 22 22 24
22 17 18 21 23 20 20 19 7 10 16 19 21 23 24 24 21 22 22 24 22 23 21 17 13 13 11 6 2 10 7 9 7 5 4 4 4 3 4 6 7 10 13 15 18 19 20 24 26
23 22 21 21 20 20 18 21 13 8 17 21 26 25 24 23 18 17 16 16 19 18 15 15 10 9 6 5 5 5 6 2 4 3 4 4 4 3 4 6 7 11 13 15 17 18 22 24 29
23 21 21 21 21 21 20 19 15 10 3 23 30 27 25 23 20 17 16 16 14 10 13 11 5 7 5 7 6 8 5 4 6 5 3 4 4 5 5 6 7 10 12 14 18 20 26 27 28
14 18 20 19 18 21 19 16 19 14 13 24 26 27 26 18 21 15 8 6 7 5 7 9 8 10 8 12 10 9 7 5 5 6 5 4 7 7 5 5 7 9 12 16 21 23 26 27 28
10 15 18 15 16 20 20 20 13 26 26 28 20 18 25 18 16 12 9 9 8 8 7 9 9 13 12 10 8 8 7 6 7 7 7 7 7 7 5 5 7 10 15 18 22 28 25 25 27
14 12 14 16 18 21 21 24 22 21 27 27 28 28 13 6 12 14 12 10 9 9 8 9 8 14 9 10 10 8 8 8 8 10 9 10 8 7 6 7 9 14 16 22 22 24 23 23 24
10 15 15 17 19 23 24 25 26 21 21 22 21 14 6 2 8 15 11 16 12 10 12 10 12 11 9 10 9 9 9 9 9 10 11 11 10 9 8 10 14 16 19 21 21 22 23 23 24
15 9 15 17 19 23 23 25 24 27 22 21 20 17 14 9 3 2 5 8 10 11 10 8 7 9 8 8 9 9 9 9 9 9 8 9 9 9 11 12 16 18 17 19 20 23 23 24 25
16 17 17 16 16 20 25 23 16 22 21 21 19 15 13 11 6 4 4 6 7 4 5 6 5 4 6 7 7 8 9 9 8 8 8 9 10 11 12 14 17 17 19 20 23 23 23 24 26
21 24 21 20 21 20 20 25 20 21 22 22 22 17 14 11 8 6 5 4 4 3 2 3 4 5 6 7 8 9 9 9 10 10 10 11 12 11 12 14 17 20 21 26 23 23 24 26 26
Wind_Direction
345 335 323 303 293 291 283 276 276 277 279 288 293 296 294 302 295 292 310 303 141 151 150 144 133 122 113 104 100 94 88 82 84 84 81 76 76 78 76 73 67 63 58 53 51 52 61 65 62
356 336 320 297 292 287 281 277 280 284 283 287 294 297 301 294 308 309 311 328 152 160 159 152 140 128 118 109 101 100 94 90 88 82 80 79 77 79 75 70 67 61 57 52 54 55 61 63 60
355 336 301 291 289 289 283 281 292 292 285 287 292 307 300 296 308 311 310 351 179 165 161 154 143 132 123 113 107 102 99 96 93 88 85 82 80 80 76 68 63 59 53 52 54 57 58 58 56
359 327 304 285 280 284 273 275 291 283 285 291 296 301 310 312 312 315 347 353 281 174 166 153 144 135 128 121 112 106 98 95 93 90 87 85 84 78 70 64 59 57 57 51 51 52 56 54 52
359 325 292 278 281 282 277 289 296 281 282 284 291 295 305 316 333 332 330 329 312 169 160 158 145 134 131 127 117 108 101 97 92 90 88 89 84 75 66 63 60 57 51 52 51 52 54 51 47
342 331 297 277 273 275 284 300 296 289 287 287 294 297 302 329 329 334 331 323 310 299 191 167 147 136 128 146 116 114 102 96 92 91 89 89 85 76 66 60 58 56 54 51 47 45 47 47 43
345 310 289 284 284 283 295 303 293 286 289 290 299 302 308 328 333 350 351 343 319 319 302 174 179 127 150 124 119 123 102 100 95 92 95 90 83 75 66 62 54 45 42 42 41 36 35 35 33
7 311 282 284 298 282 304 303 303 301 294 302 298 296 307 322 348 359 354 1 1 346 53 179 130 128 126 141 147 111 100 99 93 99 99 93 82 71 58 46 36 32 37 35 33 30 30 26 26
334 294 279 278 307 280 301 309 294 313 300 304 304 307 337 2 8 358 2 10 30 66 67 170 156 157 136 159 174 87 89 91 96 99 97 87 64 41 25 29 34 31 24 27 32 29 23 24 20
318 293 276 292 286 286 298 312 305 310 312 309 318 359 58 358 10 1 356 8 17 68 92 109 162 157 165 134 87 85 103 97 99 191 211 236 31 32 4 16 22 24 21 21 22 24 26 23 20
275 278 274 281 272 295 308 307 314 331 301 316 351 32 68 55 46 38 8 28 63 91 102 115 121 158 228 143 121 118 126 200 190 169 192 344 358 24 11 4 3 9 19 28 21 22 23 23 23
287 253 269 294 293 293 304 339 337 346 343 357 70 76 60 64 72 58 74 90 94 93 102 119 123 163 204 169 206 186 155 151 141 106 74 16 339 344 348 356 14 31 30 29 27 22 21 20 19
266 273 277 282 287 296 341 321 350 352 354 50 65 74 72 85 84 78 89 90 93 95 109 119 117 201 180 158 152 146 130 111 127 92 309 346 54 63 24 16 26 22 27 24 23 23 18 16 10
289 287 270 303 290 303 308 317 31 9 39 49 81 97 104 110 99 89 94 92 108 130 135 139 148 157 159 155 156 133 98 122 133 124 89 42 342 49 44 34 27 23 27 22 23 18 12 9 6
292 282 290 280 291 305 346 302 341 51 59 74 95 100 112 118 117 117 136 134 142 151 153 155 162 182 189 213 235 254 263 288 103 93 46 26 23 48 56 48 28 27 23 21 14 10 8 6 1
284 289 254 274 279 305 303 270 339 57 86 101 100 96 118 144 152 158 159 149 151 151 156 163 158 151 158 237 82 110 106 79 31 36 28 54 45 56 46 32 22 20 15 12 10 9 1 357 354
286 255 253 262 303 296 288 275 33 72 101 117 132 138 134 141 161 170 166 161 156 157 153 153 149 144 136 115 102 108 97 69 36 11 60 80 75 46 27 22 24 16 12 11 7 1 356 352 351
291 268 259 258 248 286 288 252 23 125 109 138 145 157 157 153 162 163 160 159 160 161 155 153 142 128 127 119 107 92 102 58 75 53 77 58 30 13 15 20 21 24 17 6 1 357 353 350 348
313 270 265 266 258 269 242 245 135 144 130 146 152 157 168 171 173 164 159 153 157 157 148 151 142 141 130 118 121 123 132 126 56 22 17 8 22 21 26 30 33 22 7 360 355 353 351 349 349
236 282 280 266 272 275 273 260 140 153 161 155 149 156 168 174 173 166 164 167 167 167 164 155 153 150 145 141 136 110 123 121 342 354 10 19 15 26 45 46 22 8 359 353 350 349 348 347 346
252 285 284 268 264 280 278 287 351 146 157 168 173 174 175 173 163 163 164 168 166 171 168 162 158 157 154 145 137 301 309 311 326 343 353 3 25 44 30 17 10 360 354 349 349 350 348 347 347
247 245 257 262 265 265 281 275 318 132 174 179 188 185 182 178 167 165 165 167 169 168 162 163 160 166 172 179 178 175 177 234 300 299 335 348 346 6 9 7 5 356 353 352 349 351 348 345 338
260 248 258 263 263 263 275 303 329 341 160 192 201 198 194 188 184 181 178 176 174 170 168 167 178 179 197 194 203 191 223 275 304 302 308 324 332 335 348 355 3 353 352 351 348 345 345 345 339
282 279 283 272 278 279 302 326 317 327 318 204 203 204 203 190 190 190 212 221 212 240 190 178 180 181 185 183 193 206 224 259 284 284 272 291 315 324 333 344 347 350 346 342 343 342 335 340 340
302 294 290 295 298 294 294 303 252 267 278 259 210 198 203 199 200 215 236 239 238 227 212 189 196 190 192 200 217 223 241 252 249 266 270 280 294 303 300 318 330 337 341 343 332 337 339 337 338
287 298 295 296 297 298 303 288 315 330 288 282 262 237 187 212 202 204 221 232 210 212 209 203 217 196 211 219 225 248 252 254 266 284 279 280 279 293 301 314 326 324 327 331 331 333 337 341 340
307 298 303 307 307 298 297 299 265 327 323 303 303 331 19 53 160 179 185 187 191 195 194 198 202 214 228 231 248 261 261 254 266 282 284 286 289 296 297 299 310 316 322 329 334 336 335 337 338
301 319 308 310 308 301 306 298 306 315 313 313 309 321 339 352 25 98 158 175 182 187 195 201 216 221 241 259 261 256 253 259 275 281 274 276 278 280 285 299 316 322 325 328 330 333 333 332 334
297 296 303 308 315 313 309 314 335 318 309 319 325 339 349 346 25 47 104 144 160 178 196 213 227 252 259 261 272 265 280 281 282 281 276 276 286 295 301 311 320 324 328 331 329 329 330 328 329
291 292 290 289 302 310 319 302 319 316 308 313 308 327 336 344 9 23 46 78 110 150 183 226 253 268 294 295 296 293 295 296 297 299 302 307 305 308 308 317 321 321 322 326 322 323 326 326 326